User: anonymous
Location: Irma
(52.9170°N, 111.2330°W)
Time: 16:25:08
(UTC-06:00)
Language:

Cosmos 2279 Rocket - Orbit

View from above orbital plane
View from above orbital plane
View from above satellite
View from above satellite

Ground track
Ground track

The orbit data is extracted from the following two-line orbital elements,

1 23093U 94024B   14265.09904982  .00000066  00000-0  50936-4 0  9084
2 23093 082.9465 137.5024 0008767 285.5120 074.5070 13.77627004493866
Epoch (UTC): 22 September 2014 02:22:37
Eccentricity: 0.0008767
inclination: 82.9465°
perigee height: 966 km
apogee height: 979 km
right ascension of ascending node: 137.5024°
argument of perigee: 285.5120°
revolutions per day: 13.77627004
mean anomaly at epoch: 74.5070°
orbit number at epoch: 49386

The dashed part of the orbit path shows where the satellite is in the earth's shadow,  

DLR